Tacoma, WA
on Saturday, January 26, 2013

Saturday
Previous Day Next Day
Daily Summary
 ActualAverage (KSEA)Record (KSEA)
Temperature
Mean Temperature °F 43°F  
Max Temperature 46°F 48°F 58°F (2003)
Min Temperature 30°F 37°F 9°F (1957)
Degree Days
Heating Degree Days 27 22  
Month to date heating degree days 600  
Since 1 July heating degree days 2538  
Cooling Degree Days 0 0  
Month to date cooling degree days 0  
Year to date cooling degree days 0  
Moisture
Dew Point 37°F   
Average Humidity 94    
Maximum Humidity 100    
Minimum Humidity 71    
Precipitation
Precipitation 0.01 in 0.16 in 1.03 in (1950)
Month to date precipitation 4.78  
Year to date precipitation 4.78  
Snow
Snow 0.00 in in 10.00 in (1950)
Month to date snowfall  
Since 1 July snowfall  
Snow Depth in   
Wind
Wind Speed 6 mph   
Max Wind Speed 16 mph   
Max Gust Speed mph   
Visibility 8 miles   
Events Fog , Rain   

Key: T is trace of precipitation, MM is missing value
Source: NWS Daily Summary
Time(PST)TemperatureDew PointHumidity Pressure Visibility Wind DirectionWind SpeedGust SpeedPrecipitationEvents Conditions
12:08 AM 32.0°F 32.0°F 100% 29.93 in 2.0 miles ESE 2.3 mph - N/A   Partly Cloudy
12:13 AM 32.0°F 32.0°F 100% 29.93 in 1.5 miles Calm Calm - N/A   Clear
12:18 AM 32.0°F 32.0°F 100% 29.93 in 1.0 miles SSE 2.3 mph - N/A   Clear
12:23 AM 32.0°F 32.0°F 100% 29.93 in 0.8 miles SE 2.3 mph - N/A   Clear
12:28 AM 32.0°F 32.0°F 100% 29.93 in 0.5 miles SSE 2.3 mph - N/A Fog Light Freezing Fog
12:38 AM 32.0°F 32.0°F 100% 29.92 in 0.8 miles ESE 1.2 mph - N/A   Clear
12:48 AM 32.0°F 32.0°F 100% 29.92 in 0.5 miles East 1.2 mph - N/A Fog Light Freezing Fog
12:58 AM 31.1°F 31.1°F 100% 29.94 in 0.8 miles SE 2.3 mph - N/A   Clear
1:03 AM 32.0°F 32.0°F 100% 29.92 in 1.0 miles South 2.3 mph - N/A   Clear
1:08 AM 32.0°F 30.2°F 93% 29.92 in 0.8 miles SW 3.5 mph - N/A   Clear
1:13 AM 32.0°F 32.0°F 100% 29.91 in 1.0 miles SW 2.3 mph - N/A   Clear
1:18 AM 32.0°F 32.0°F 100% 29.91 in 1.2 miles South 3.5 mph - N/A   Clear
1:23 AM 30.2°F 30.2°F 100% 29.91 in 1.8 miles SSE 3.5 mph - N/A   Clear
1:28 AM 32.0°F 30.2°F 93% 29.91 in 1.5 miles South 1.2 mph - N/A   Clear
1:33 AM 32.0°F 32.0°F 100% 29.91 in 1.8 miles SSE 4.6 mph - N/A   Clear
1:38 AM 32.0°F 32.0°F 100% 29.91 in 4.0 miles Variable 4.6 mph - N/A   Clear
1:58 AM 31.6°F 31.6°F 100% 29.93 in 10.0 miles SSE 4.6 mph - N/A   Clear
2:58 AM 33.3°F 33.3°F 100% 29.92 in 8.0 miles SSW 2.3 mph - N/A   Mostly Cloudy
3:11 AM 32.0°F 32.0°F 100% 29.91 in 8.0 miles South 6.9 mph - N/A   Scattered Clouds
3:58 AM 35.8°F 35.8°F 100% 29.90 in 10.0 miles SSW 4.6 mph - 0.01 in Rain Light Rain
4:30 AM 35.6°F 35.6°F 100% 29.88 in 10.0 miles South 8.1 mph - N/A   Scattered Clouds
4:33 AM 35.6°F 35.6°F 100% 29.89 in 10.0 miles South 8.1 mph - N/A Rain Light Rain
4:44 AM 35.6°F 35.6°F 100% 29.89 in 10.0 miles South 6.9 mph - N/A   Scattered Clouds
4:50 AM 37.4°F 37.4°F 100% 29.89 in 10.0 miles South 6.9 mph - N/A Rain Light Rain
4:58 AM 37.0°F 37.0°F 100% 29.90 in 10.0 miles South 8.1 mph - 0.00 in Rain Light Rain
4:59 AM 37.4°F 37.4°F 100% 29.88 in 10.0 miles South 6.9 mph - N/A   Mostly Cloudy
5:58 AM 38.1°F 38.1°F 100% 29.90 in 10.0 miles South 8.1 mph - 0.00 in   Mostly Cloudy
6:58 AM 36.9°F 36.9°F 100% 29.91 in 10.0 miles South 9.2 mph - N/A   Overcast
7:28 AM 39.2°F 37.4°F 93% 29.90 in 10.0 miles South 8.1 mph - N/A   Overcast
7:33 AM 37.4°F 37.4°F 100% 29.90 in 10.0 miles South 8.1 mph - N/A   Overcast
7:58 AM 38.8°F 38.7°F 99% 29.93 in 10.0 miles South 9.2 mph - N/A   Overcast
8:58 AM 41.4°F 40.8°F 98% 29.94 in 10.0 miles South 9.2 mph - N/A   Mostly Cloudy
9:20 AM 42.8°F 41.0°F 93% 29.93 in 10.0 miles South 12.7 mph - N/A Rain Light Rain
9:25 AM 42.8°F 41.0°F 93% 29.93 in 10.0 miles South 10.4 mph - N/A Rain Light Rain
9:33 AM 42.8°F 41.0°F 93% 29.94 in 10.0 miles SSW 10.4 mph - N/A   Overcast
9:58 AM 42.4°F 40.6°F 93% 29.96 in 10.0 miles South 10.4 mph - 0.00 in   Overcast
10:18 AM 44.6°F 41.0°F 87% 29.95 in 10.0 miles South 10.4 mph - N/A   Mostly Cloudy
10:38 AM 44.6°F 41.0°F 87% 29.95 in 10.0 miles South 11.5 mph - N/A   Mostly Cloudy
10:58 AM 45.3°F 40.5°F 83% 29.97 in 10.0 miles South 11.5 mph - N/A   Mostly Cloudy
11:03 AM 44.6°F 39.2°F 81% 29.95 in 10.0 miles South 12.7 mph - N/A   Mostly Cloudy
11:13 AM 44.6°F 39.2°F 81% 29.95 in 10.0 miles South 9.2 mph - N/A   Overcast
11:18 AM 44.6°F 39.2°F 81% 29.95 in 10.0 miles South 13.8 mph - N/A   Mostly Cloudy
11:23 AM 46.4°F 39.2°F 76% 29.95 in 10.0 miles South 13.8 mph - N/A   Mostly Cloudy
11:58 AM 45.3°F 38.5°F 77% 29.96 in 10.0 miles SSW 13.8 mph - N/A   Mostly Cloudy
12:03 PM 44.6°F 39.2°F 81% 29.94 in 10.0 miles South 15.0 mph - N/A   Mostly Cloudy
12:58 PM 46.2°F 39.2°F 76% 29.96 in 10.0 miles SSW 12.7 mph - N/A   Overcast
1:06 PM 44.6°F 39.2°F 81% 29.94 in 10.0 miles SSW 10.4 mph - N/A Rain Light Rain
1:26 PM 44.6°F 39.2°F 81% 29.93 in 10.0 miles SW 12.7 mph - N/A   Mostly Cloudy
1:58 PM 45.5°F 38.5°F 76% 29.96 in 10.0 miles South 12.7 mph - 0.00 in   Mostly Cloudy
2:48 PM 46.4°F 37.4°F 71% 29.94 in 10.0 miles SSW 16.1 mph - N/A   Mostly Cloudy
2:58 PM 46.0°F 38.1°F 74% 29.96 in 10.0 miles SW 15.0 mph - N/A   Mostly Cloudy
3:58 PM 44.4°F 38.5°F 80% 29.97 in 10.0 miles South 12.7 mph - N/A   Partly Cloudy
4:58 PM 41.0°F 38.7°F 91% 29.98 in 10.0 miles South 6.9 mph - N/A   Scattered Clouds
5:58 PM 37.2°F 37.0°F 99% 30.00 in 10.0 miles South 8.1 mph - N/A   Mostly Cloudy
6:58 PM 36.5°F 36.3°F 99% 30.01 in 10.0 miles South 8.1 mph - N/A   Mostly Cloudy
7:18 PM 37.4°F 37.4°F 100% 30.00 in 10.0 miles South 6.9 mph - N/A Rain Light Rain
7:29 PM 37.4°F 37.4°F 100% 30.00 in 10.0 miles South 5.8 mph - N/A   Partly Cloudy
7:33 PM 37.4°F 37.4°F 100% 30.00 in 10.0 miles South 5.8 mph - N/A Rain Light Rain
7:36 PM 37.4°F 37.4°F 100% 30.00 in 10.0 miles South 6.9 mph - N/A   Scattered Clouds
7:38 PM 37.4°F 37.4°F 100% 30.00 in 10.0 miles South 6.9 mph - N/A Rain Light Rain
7:48 PM 37.4°F 37.4°F 100% 30.00 in 10.0 miles South 6.9 mph - N/A   Mostly Cloudy
7:58 PM 38.1°F 37.8°F 99% 30.02 in 10.0 miles South 6.9 mph - 0.00 in   Mostly Cloudy
8:03 PM 37.4°F 37.4°F 100% 30.00 in 10.0 miles South 5.8 mph - N/A   Mostly Cloudy
8:38 PM 39.2°F 39.2°F 100% 30.01 in 10.0 miles SSW 8.1 mph - N/A   Overcast
8:58 PM 38.5°F 38.3°F 99% 30.03 in 10.0 miles SSE 5.8 mph - N/A   Mostly Cloudy
9:08 PM 37.4°F 37.4°F 100% 30.01 in 10.0 miles SSE 4.6 mph - N/A   Mostly Cloudy
9:58 PM 39.4°F 39.0°F 99% 30.04 in 10.0 miles South 5.8 mph - N/A   Overcast
10:58 PM 40.1°F 39.7°F 99% 30.06 in 10.0 miles South 9.2 mph - N/A   Overcast
11:58 PM 40.1°F 39.7°F 99% 30.07 in 10.0 miles SSW 6.9 mph - N/A   Overcast
Moon Phase
Jan. 26 Jan. 26 Feb. 03 Feb. 10 Feb. 17
Sunrise:07:41 AM (PST) Moon Rise:05:07 PM (PST)1/26
Sunset:05:03 PM (PST) Moon Set:07:00 AM (PST)1/26

Copyright © 2014 The Weather Underground, Inc.